軌道要素
Epoch 2011 Feb. 8.0 TT = JDT 2455600.5
T 2011 Jan. 24.39375 TT MPC
q 1.4510289 (2000.0) P Q
n 0.01135624 Peri. 27.84838 +0.89420603 -0.29904456
a 19.6025691 Node 21.51229 -0.03801357 -0.79217745
e 0.9259776 Incl. 114.71204 +0.44603873 +0.53200304
P 86.8
From 81 observations 2011 May 14-July 19, mean residual 0".6.
|